Location: Zagreb
(45.8000°N, 16.0000°E)
Time: 00:26:54
(UTC+01:00)

NO-84 - Pass Details

Date: 03 November 2020
Orbit: 323 x 458 km, 55.0° (Epoch: 25 November)

Event Time Altitude Azimuth Distance (km) Brightness Sun altitude
Exits shadow 05:13:22 15° 339° (NNW) 1,208 ? -15.3°
Maximum altitude 05:14:42 18° 10° (N) 1,053 ? -15.1°
Drops below altitude 10° 05:16:58 10° 56° (NE) 1,405 ? -14.7°
Sets 05:19:23 0° 77° (ENE) 2,224 ? -14.3°
